Regional Weather Roundup
Issued by NWS

Home | Current Version | Previous Version | Graphics & Text | Print | Product List | Glossary On
Versions: 1 2 3 4 5 6 7 8 9 10 11 12 13 14 15 16 17 18 19 20 21 22 23 24 25 26 27 28 29 30 31 32 33 34 35 36 37 38 39 40 41 42 43 44 45 46 47 48 49 50
000
ASUS45 KBOU 010107
RWRCO

WEATHER ROUNDUP FOR COLORADO
NATIONAL WEATHER SERVICE DENVER/BOULDER CO
700 PM MDT MON AUG 31 2015

NOTE: "FAIR" INDICATES FEW OR NO CLOUDS BELOW 12000 FEET WITH NO
SIGNIFICANT WEATHER AND/OR OBSTRUCTIONS TO VISIBILITY.

COZ001>005-013-030-031-010200-
...NORTHWEST COLORADO...

CITY           SKY/WX    TMP DP  RH WIND       PRES   REMARKS
CRAIG          LGT RAIN  60  51  72 E7        30.24F
HAYDEN         NOT AVBL
MEEKER         MOCLDY    66  47  50 E10       30.23R
MOUNT WERNER   NOT AVBL
STEAMBOAT SPGS CLOUDY    63  42  46 N22G37    30.26R
WALDEN         CLOUDY    52  43  71 NW14      30.39R
$$

COZ006>008-011-010200-
...WEST CENTRAL VALLEYS...

CITY           SKY/WX    TMP DP  RH WIND       PRES   REMARKS
GRAND JUNCTION MOCLDY    80  52  37 CALM      30.05S
MONTROSE       CLOUDY    76  51  41 CALM      30.15F
EAGLE          PTCLDY    72  48  43 CALM      30.24S
RIFLE          PTCLDY    77  52  41 CALM      30.13S
DELTA          CLOUDY    81  49  32 SE3       30.09F
NUCLA          CLOUDY    77  37  24 W6        30.18F
$$

COZ017>023-064>068-010200-
...SOUTHWEST COLORADO...

CITY           SKY/WX    TMP DP  RH WIND       PRES   REMARKS
DURANGO        MOCLDY    76  35  22 NW10      30.18F
CORTEZ         CLEAR     77  45  32 W6        30.14F
PAGOSA SPRINGS MOCLDY    75  35  22 SW7       30.26S
TELLURIDE      MOCLDY    64  43  46 W7        30.40F
WOLF CREEK PAS MOCLDY    50  37  62 SW13G20   30.60F
$$

COZ009-010-012-014-032>034-037-058>063-010200-
...CENTRAL COLORADO...

CITY           SKY/WX    TMP DP  RH WIND       PRES   REMARKS
ASPEN          PTCLDY    63  49  60 CALM      30.29S
BUENA VISTA    PTCLDY    65  51  60 SW3       30.28S
COPPER MTN     PTCLDY    54  41  62 W14       30.60R
BERTHOUD PASS  FAIR      45  32  61 NW16      30.63S
COTTONWOOD PAS CLOUDY    61  45  55 CALM      30.42S
GUNNISON       PTCLDY    70  43  37 NW5       30.29R
KREMMLING      MOCLDY    64  41  42 CALM      30.30R
LEADVILLE      PTCLDY    60  37  42 NW12G21   30.42R
MONARCH PASS   MOCLDY    52  37  58 W17       30.67F
SALIDA         PTCLDY    70  46  41 NW5       30.32S
SUNLIGHT       MOCLDY    55  50  82 CALM      30.54R
WILKERSON PASS MOCLDY    50  41  71 CALM      30.56S
$$

COZ069>075-010200-
...SAN LUIS VALLEY/SANGRE DE CRISTO MOUNTAINS...

CITY           SKY/WX    TMP DP  RH WIND       PRES   REMARKS
ALAMOSA        CLOUDY    67  46  47 NW7       30.27R
LA VETA PASS   MOCLDY    54  45  71 MISG      30.46F
SAGUACHE       CLOUDY    70  43  37 W3        30.29S
$$

COZ035-036-038>040-010200-
...NORTHERN COLORADO FRONT RANGE...

CITY           SKY/WX    TMP DP  RH WIND       PRES   REMARKS
DENVER INTL AP CLOUDY    67  56  67 SE12      30.14F
DMNS CITY PARK   N/A     69  54  58 SE9       30.13F
AURORA         MOCLDY    69  54  58 SE7       30.17F
FRONT RANGE AP MOCLDY    64  55  72 SE9       30.16F
ERIE MUNI ARPT CLOUDY    71  57  61 S7        30.11R
BOULDER MUN AP CLOUDY    72  54  53 CALM      30.11S
CENTENNIAL     CLOUDY    66  56  70 S5        30.18S
BROOMFIELD     MOCLDY    68  57  68 SE9       30.15S
FORT COLLINS   CLOUDY    73  48  40 S5        30.11S
LONGMONT       CLOUDY    74  54  48 S5        30.11S
$$

COZ041-046-047-076>085-087-088-010200-
...PIKES PEAK/PALMER DIVIDE AND SOUTHERN FOOTHILLS...

CITY           SKY/WX    TMP DP  RH WIND       PRES   REMARKS
COLO. SPRINGS  MOCLDY    66  54  65 N13       30.19S
A. F. ACADEMY  MOCLDY    65  54  68 N8        30.22S
ELLICOTT       MOCLDY   N/A N/A N/A N6G17     30.16F THUNDER
FALCON         MOCLDY    62  51  69 MISG      30.24F
FORT CARSON    MOCLDY    67  57  71 N10       30.15S
LIMON          TSTM      61  56  83 W22G33    30.13R
MONUMENT HILL  CLOUDY    59  52  77 CALM      30.26R
TRINIDAD       CLOUDY    75  51  43 NW6       30.12R
$$

COZ042>045-048>051-090-091-010200-
...NORTHEAST COLORADO...

CITY           SKY/WX    TMP DP  RH WIND       PRES   REMARKS
GREELEY ARPT   CLOUDY    73  48  40 N12       30.10R
AKRON          CLOUDY    80  48  32 E8        30.04R
BURLINGTON     PTCLDY    82  52  35 E8        29.97R
WRAY           CLOUDY    85  50  30 N8        29.95S
STERLING       CLOUDY    81  50  34 E3        29.99R
HOLYOKE        MOCLDY    82  50  32 NE8       29.97F
FORT MORGAN    CLOUDY    73  48  40 W21G31    30.10R
$$

COZ086-089-092>099-010200-
...SOUTHEAST COLORADO...

CITY           SKY/WX    TMP DP  RH WIND       PRES   REMARKS
PUEBLO         CLOUDY    78  53  41 SW3       30.08R
LA JUNTA       MOCLDY    89  47  23 NW15G26   29.95R
LAMAR          MOCLDY    87  64  46 NW5       29.87F
SPRINGFIELD      N/A     84  50  30 SW5       29.96S
$$




USA.gov is the U.S. government's official web portal to all federal, state and local government web resources and services.